N5ZPR Weather Reports


Display with metric or nautical units.
time (UTC)temp
F
wind
direction
speed
MPH
gust
MPH
rain 1hr
in
rain 24hr
in
rain mn
in
humidity
%
barometer
mb
20260905082004 80 0 0.0 0.0 0.00 0.00 0.00 76 1011.2
20260905081004 80 0 0.0 0.0 0.00 0.00 0.00 75 1011.2
20260905080003 80 0 0.0 0.0 0.00 0.00 0.00 75 1011.2
20260905075003 81 0 0.0 0.0 0.00 0.00 0.00 74 1011.2
20260905074003 81 0 0.0 0.0 0.00 0.00 0.00 74 1011.2
20260905073004 81 0 0.0 0.0 0.00 0.00 0.00 73 1011.2
20260905072003 81 0 0.0 0.0 0.00 0.00 0.00 73 1011.2
20260905070004 82 0 0.0 0.0 0.00 0.00 0.00 71 1011.2
20260905064004 83 0 0.0 0.0 0.00 0.00 0.00 70 1011.3
20260905063004 83 0 0.0 0.0 0.00 0.00 0.00 69 1011.2
20260905060004 84 0 0.0 0.0 0.00 0.00 0.00 67 1011.2
20260905055003 84 0 0.0 0.0 0.00 0.00 0.00 67 1011.2
20260905054004 84 0 0.0 0.0 0.00 0.00 0.00 66 1011.1
20260905053003 85 0 0.0 0.0 0.00 0.00 0.00 65 1011.1
20260905052004 85 0 0.0 0.0 0.00 0.00 0.00 64 1011.0
20260905051003 85 0 0.0 0.0 0.00 0.00 0.00 64 1011.0
20260905045004 86 0 0.0 0.0 0.00 0.00 0.00 62 1011.1
20260905044004 86 0 0.0 0.0 0.00 0.00 0.00 62 1011.1
20260905043004 86 0 0.0 0.0 0.00 0.00 0.00 61 1011.1
20260905042004 87 0 0.0 0.0 0.00 0.00 0.00 60 1011.1
20260905041003 87 229 0.0 0.0 0.00 0.00 0.00 59 1011.1
20260905040004 87 169 0.0 0.0 0.00 0.00 0.00 58 1011.1
20260905034003 88 126 0.0 0.0 0.00 0.00 0.00 57 1011.0
20260905032003 89 156 0.0 0.0 0.00 0.00 0.00 54 1011.0
20260905030004 90 71 0.0 0.0 0.00 0.00 0.00 52 1010.7
20260905025004 90 177 0.0 0.0 0.00 0.00 0.00 52 1010.3
20260905024003 91 202 0.0 0.0 0.00 0.00 0.00 50 1010.3
20260905023004 91 167 0.0 0.0 0.00 0.00 0.00 49 1010.3
20260905022003 92 159 0.0 0.0 0.00 0.00 0.00 48 1009.3
20260905021004 92 183 0.0 0.0 0.00 0.00 0.00 46 1009.3
20260905020004 92 153 0.0 0.0 0.00 0.00 0.00 46 1009.3
20260905015003 93 164 0.0 0.0 0.00 0.00 0.00 46 1009.3
20260905012004 94 123 0.0 0.0 0.00 0.00 0.00 46 1009.3
20260905011003 94 139 0.0 0.0 0.00 0.00 0.00 46 1008.8
20260905010003 94 117 0.0 0.0 0.00 0.00 0.00 45 1008.8
20260905005004 95 131 0.0 0.0 0.00 0.00 0.00 45 1008.8
20260905004003 96 132 0.0 0.0 0.00 0.00 0.00 43 1008.8
20260905003004 96 140 0.0 0.0 0.00 0.00 0.00 43 1008.5
20260905002003 96 123 0.0 0.0 0.00 0.00 0.00 43 1008.5
20260905001003 96 149 0.0 0.0 0.00 0.00 0.00 42 1008.5
20260905000004 96 127 0.0 0.0 0.00 0.00 0.00 43 1008.5
20260904235004 97 130 0.0 0.0 0.00 0.00 0.00 42 1008.5
20260904234004 97 116 0.0 0.0 0.00 0.00 0.00 41 1008.5
20260904233004 98 169 0.0 0.0 0.00 0.00 0.00 40 1008.5
20260904232004 98 111 0.0 0.0 0.00 0.00 0.00 39 1008.8
20260904230003 99 148 0.0 0.0 0.00 0.00 0.00 38 1008.8
20260904225004 100 114 0.0 0.0 0.00 0.00 0.00 37 1008.8
20260904223004 101 87 0.0 0.0 0.00 0.00 0.00 36 1008.8
20260904222003 101 167 0.0 0.0 0.00 0.00 0.00 36 1008.8
20260904220003 100 123 0.0 0.0 0.00 0.00 0.00 37 1008.8
20260904215003 101 104 0.0 0.0 0.00 0.00 0.00 36 1008.8
20260904214003 100 149 0.0 0.0 0.00 0.00 0.00 37 1009.7
20260904212004 100 104 0.0 0.0 0.00 0.00 0.00 37 1009.7
20260904211003 101 150 0.0 0.0 0.00 0.00 0.00 36 1009.7
20260904210003 100 118 0.0 0.0 0.00 0.00 0.00 36 1009.7
20260904205003 100 144 0.0 0.0 0.00 0.00 0.00 37 1009.7
20260904204004 100 104 0.0 0.0 0.00 0.00 0.00 38 1009.7
20260904203003 99 111 0.0 0.0 0.00 0.00 0.00 40 1010.0
20260904202004 99 151 0.0 0.0 0.00 0.00 0.00 39 1010.0
20260904201004 99 164 0.0 0.0 0.00 0.00 0.00 39 1010.0
20260904200004 99 196 0.0 0.0 0.00 0.00 0.00 41 1010.6
20260904195003 98 162 0.0 0.0 0.00 0.00 0.00 41 1010.6
20260904193004 99 189 0.0 0.0 0.00 0.00 0.00 41 1010.8
20260904192003 98 145 0.0 0.0 0.00 0.00 0.00 43 1010.8
20260904191003 96 198 0.0 0.0 0.00 0.00 0.00 45 1011.4
20260904190004 96 151 0.0 0.0 0.00 0.00 0.00 45 1011.4
20260904185004 96 156 0.0 0.0 0.00 0.00 0.00 46 1011.4
20260904184004 96 32 0.0 0.0 0.00 0.00 0.00 47 1011.4
20260904183004 98 102 0.0 0.0 0.00 0.00 0.00 45 1011.4
20260904182004 97 191 0.0 0.0 0.00 0.00 0.00 45 1011.7
20260904181004 98 149 0.0 0.0 0.00 0.00 0.00 44 1011.7
20260904175004 96 221 0.0 0.0 0.00 0.00 0.00 48 1012.2
20260904174003 95 138 0.0 0.0 0.00 0.00 0.00 49 1012.2
20260904173005 95 231 0.0 0.0 0.00 0.00 0.00 48 1012.2
20260904172004 93 88 0.0 0.0 0.00 0.00 0.00 52 1012.5
20260904171004 93 165 0.0 0.0 0.00 0.00 0.00 53 1012.5
20260904170004 94 128 0.0 0.0 0.00 0.00 0.00 52 1012.5
20260904165003 92 160 0.0 0.0 0.00 0.00 0.00 54 1012.5
20260904164004 92 243 0.0 0.0 0.00 0.00 0.00 51 1012.6
20260904163003 92 219 0.0 0.0 0.00 0.00 0.00 50 1012.5
20260904162004 91 225 0.0 0.0 0.00 0.00 0.00 54 1012.5
20260904161004 91 166 0.0 0.0 0.00 0.00 0.00 54 1012.5
20260904160003 91 124 0.0 0.0 0.00 0.00 0.00 57 1012.4
20260904155003 89 156 0.0 0.0 0.00 0.00 0.00 60 1012.4
20260904153003 88 203 0.0 0.0 0.00 0.00 0.00 68 1012.5
20260904152004 88 154 0.0 0.0 0.00 0.00 0.00 69 1012.5
20260904151004 86 149 0.0 0.0 0.00 0.00 0.00 73 1012.5
20260904145003 84 207 0.0 0.0 0.00 0.00 0.00 76 1012.5
20260904143003 82 191 0.0 0.0 0.00 0.00 0.00 82 1012.5
20260904142003 82 147 0.0 0.0 0.00 0.00 0.00 82 1012.5
20260904141003 82 0 0.0 0.0 0.00 0.00 0.00 83 1011.7
20260904140003 80 0 0.0 0.0 0.00 0.00 0.00 86 1011.7
20260904135003 80 0 0.0 0.0 0.00 0.00 0.00 87 1011.7
20260904134003 79 0 0.0 0.0 0.00 0.00 0.00 87 1011.7
20260904133003 79 0 0.0 0.0 0.00 0.00 0.00 87 1011.7
20260904132003 79 0 0.0 0.0 0.00 0.00 0.00 87 1011.7
20260904131004 79 0 0.0 0.0 0.00 0.00 0.00 87 1011.7
20260904130004 79 0 0.0 0.0 0.00 0.00 0.00 86 1011.7
20260904125003 79 0 0.0 0.0 0.00 0.00 0.00 86 1011.7
20260904124003 78 0 0.0 0.0 0.00 0.00 0.00 88 1011.5
20260904123003 78 0 0.0 0.0 0.00 0.00 0.00 88 1011.5
20260904122004 78 0 0.0 0.0 0.00 0.00 0.00 87 1011.5
20260904121003 79 0 0.0 0.0 0.00 0.00 0.00 87 1011.2
20260904120003 78 0 0.0 0.0 0.00 0.00 0.00 87 1011.2
20260904115004 78 0 0.0 0.0 0.00 0.00 0.00 87 1011.0
20260904114004 79 0 0.0 0.0 0.00 0.00 0.00 86 1011.0
20260904113003 79 0 0.0 0.0 0.00 0.00 0.00 85 1011.0
20260904112004 79 0 0.0 0.0 0.00 0.00 0.00 87 1011.0
20260904111003 79 0 0.0 0.0 0.00 0.00 0.00 86 1011.0
20260904110004 79 0 0.0 0.0 0.00 0.00 0.00 85 1011.0
20260904105003 79 0 0.0 0.0 0.00 0.00 0.00 86 1010.7
20260904104003 79 0 0.0 0.0 0.00 0.00 0.00 84 1010.7
20260904102004 79 0 0.0 0.0 0.00 0.00 0.00 84 1010.7
20260904101004 80 0 0.0 0.0 0.00 0.00 0.00 85 1010.7
20260904095004 78 0 0.0 0.0 0.00 0.00 0.00 87 1010.7
20260904094004 78 0 0.0 0.0 0.00 0.00 0.00 87 1010.7
20260904093004 78 0 0.0 0.0 0.00 0.00 0.00 87 1010.7
20260904091003 78 0 0.0 0.0 0.00 0.00 0.00 86 1010.5
20260904090004 78 0 0.0 0.0 0.00 0.00 0.00 86 1010.5
20260904085004 78 0 0.0 0.0 0.00 0.00 0.00 86 1010.5
20260904084003 78 0 0.0 0.0 0.00 0.00 0.00 86 1010.5
20260904083004 78 0 0.0 0.0 0.00 0.00 0.00 86 1010.5